Location: Domont
(49.0278°N, 2.3264°E)
Time: 04:03:51
(UTC+00:00)

PicSat - Visible Passes

Search period start: 29 June 2022 00:00
Search period end: 09 July 2022 00:00
Orbit: 453 x 459 km, 97.4° (Epoch: 28 June)

Date Brightness Start Highest point End Pass type
(mag) Time Alt. Az. Time Alt. Az. Time Alt. Az.
29 Jun ? 20:45:50 10° E 20:47:16 12° ENE 20:48:43 10° NE visible
29 Jun ? 22:17:56 26° S 22:19:41 59° W 22:23:07 10° NNW visible
30 Jun ? 21:44:23 20° SE 21:46:28 51° ENE 21:49:50 10° N visible
30 Jun ? 23:18:10 10° WSW 23:19:39 12° W 23:21:09 10° WNW visible
01 Jul ? 21:10:49 11° ESE 21:13:23 22° ENE 21:16:07 10° NNE visible
01 Jul ? 22:44:34 20° SW 22:46:08 28° W 22:49:11 10° NW visible
02 Jul ? 22:10:59 26° S 22:12:45 74° WSW 22:16:13 10° NNW visible
03 Jul ? 21:37:21 19° SE 21:39:30 42° ENE 21:42:47 10° N visible
03 Jul ? 23:11:07 12° WSW 23:12:34 15° W 23:14:37 10° NW visible
04 Jul ? 21:03:55 10° ESE 21:06:22 19° ENE 21:08:50 10° NNE visible
04 Jul ? 22:37:28 23° SW 22:39:01 34° W 22:42:12 10° NNW visible
05 Jul ? 22:03:48 27° SSE 22:05:35 89° ENE 22:09:03 10° NNW visible
06 Jul ? 21:30:07 17° SE 21:32:17 34° ENE 21:35:27 10° N visible
06 Jul ? 23:03:52 14° WSW 23:05:16 18° W 23:07:42 10° NW visible
07 Jul ? 20:56:59 10° ESE 20:59:07 16° ENE 21:01:16 10° NNE visible
07 Jul ? 22:30:09 26° SSW 22:31:40 42° W 22:34:59 10° NNW visible
08 Jul ? 21:56:25 26° SSE 21:58:11 71° ENE 22:01:39 10° N visible
